Погода в Бейтостёлене

Норвегия     61°14′29″N   8°55′18″E
В апреле 2022 года жителям России запретили посещать сайт meteo.paraplan.net по решению Генеральной прокуратуры. Аудитория сайта уменьшилась в 10 раз. Владельцы сайта не видят смысла в поддержке погодного сервера в таких условиях. Сайт будет закрыт в октябре.
темп.,
°C
ветер,
м/с
пор.,
м/с
влажн.,
%
обл.,
%
осадки,
мм/ч
давл.,
гПа
погр.,
м
25 сентября, вс
вс2523:00+2з019232 0.1 101510
02:000сз11925 0.1 101510
05:000сз11895 0.0 101410
08:00+1юз118915 0.0 101310
11:00+4ю228151 0.0 1010508
14:00+7ю456291 0.1 10051092
17:00+7ююз5755100 0.0 10011263
20:00+3ююв3487100 0.1 999194
26 сентября, пн
пн2623:00+1ююв3499100 1.3 997303
02:00+2юв24100100 2.2 994374
05:00+2юв35100100 0.4 993442
08:00+2юв37100100 1.1 992565
11:00+3юв3999100 2.6 990932
14:00+3юв4999100 8.9 990788
17:00+3вюв2899100 9.1 990793
20:00+3вюв3999100 15.1 990842
27 сентября, вт
вт2723:00+3юв1299100 3.8 991104
02:00+4вюв3898100 5.0 991576
05:00+3в3695100 1.9 993422
08:00+2всв2399100 4.8 996317
11:00+1ссв1399100 5.7 999282
14:00+3св2499100 9.3 1000204
17:00+3всв3898100 4.8 1001681
20:00+3св3498100 10.1 1003168
28 сентября, ср
ср2823:00+4всв3598100 4.7 1004271
02:00+4всв2398100 7.0 1006104
05:00+3св2295100 1.1 100640
08:00+3св2396100 3.5 1007153
11:00+2ссв2699100 2.4 1009638
14:00+3ссв2398100 3.5 1010286
17:00+3св2292100 0.3 1010186
20:00+2ссв2292100 0.4 101040
29 сентября, чт
чт2923:00+2с218894 0.1 101012
02:00+1св118898 0.1 101012
05:00+1св119296 0.1 101019
08:00+1св119594 0.1 101066
11:00+2св128394 0.1 1010320
14:00+3ссв117571 0.1 1009641
17:00+3ссв117624 0.1 1009398
20:00−2с1190100 0.1 101011